Regional Weather Roundup
Issued by NWS Portland, ME

Current Version | Previous Version | Text Only | Print | Product List | Glossary Off
Versions: 1 2 3 4 5 6 7 8 9 10 11 12 13 14 15 16 17 18 19 20 21 22 23 24 25 26 27 28 29 30 31 32 33 34 35 36 37 38 39 40 41 42 43 44 45 46 47 48 49 50
000 ASUS41 KGYX 262105 RWRGYX WEATHER ROUNDUP FOR MAINE AND NEW HAMPSHIRE NATIONAL WEATHER SERVICE GRAY ME 500 PM EDT MON JUN 26 2017 MEZ002-005-006-010-012-015-018-020-021-024-026-027-029-262200- MAINE CITY SKY/WX TMP DP RH WIND PRES REMARKS PORTLAND PTSUNNY 75 48 38 NW8 29.92S SANFORD MOSUNNY 74 49 41 W6 29.93S BAR HARBOR PTSUNNY 73 51 46 NW9 29.89S WISCASSET MOSUNNY 75 50 41 MISG 29.93F ROCKLAND SUNNY 72 51 47 W14 29.91S FRYEBURG MOSUNNY 72 51 47 S3 29.93F LEWISTONAUBURN MOSUNNY 72 51 47 SW6 29.93S AUGUSTA MOSUNNY 72 50 45 NW7 29.92F WATERVILLE PTSUNNY 72 52 49 SW10 29.89S BANGOR PTSUNNY 70 51 51 N10 29.89F GREENVILLE N/A 67 45 45 VRB3 29.89F MILLINOCKET MOSUNNY 71 46 40 VRB7 29.89S HOULTON MOSUNNY 71 47 42 VRB7 29.85F PRESQUE ISLE PTSUNNY 67 45 45 NW8 29.88S FRENCHVILLE PTSUNNY 64 41 42 W9 29.86S CARIBOU PTSUNNY 66 44 45 VRB3 29.86S $$ NHZ002-005-008-009-011-012-014-262200- NEW HAMPSHIRE CITY SKY/WX TMP DP RH WIND PRES REMARKS PORTSMOUTH MOSUNNY 77 47 35 W10 29.91F ROCHESTER CLOUDY 73 48 41 W5 29.92S NASHUA PTSUNNY 75 52 44 VRB3 29.94S MANCHESTER PTSUNNY 74 46 36 W8 29.92F CONCORD CLOUDY 73 49 42 W6 29.93F LACONIA PTSUNNY N/A N/A N/A W5 29.93 PLYMOUTH CLOUDY 71 47 41 CALM 29.93S BERLIN CLOUDY 68 43 40 VRB6 29.94F WHITEFIELD MOSUNNY 70 45 40 W8 29.94F JAFFREY PTSUNNY 72 51 47 VRB5 29.97S KEENE PTSUNNY 71 53 52 SW3 29.96R LEBANON LGT RAIN 64 57 78 S9 29.96R MT WASHINGTON NOT AVBL $$ VTZ005-007-008-262200- VERMONT CITY SKY/WX TMP DP RH WIND PRES REMARKS ST JOHNSBURY N/A 70 47 43 MISG 29.91F MONTPELIER PTSUNNY 67 49 52 N6 29.98F BURLINGTON PTSUNNY 72 46 39 VRB7 29.93F $$ MAZ007-012-024-CTZ003-RIZ002-NYZ038-NYZ072-262200- SOUTHERN NEW ENGLAND AND NY CITY SKY/WX TMP DP RH WIND PRES REMARKS BOSTON PTSUNNY 77 50 38 SW10G18 29.93S WORCESTER PTSUNNY 73 48 41 W12 29.97S NANTUCKET SUNNY 69 60 73 SW14 29.99F PROVIDENCE MOSUNNY 76 56 49 SW16G25 29.96R HARTFORD PTSUNNY 76 51 41 W5 29.95S ALBANY PTSUNNY 71 52 50 NE6 29.94F NEW YORK CITY MOSUNNY 77 51 40 S15 29.98S $$ ANZ081-ANZ082-ANZ150-NHZ014-MEZ023>029-262200- COASTAL MARINE OBSERVATIONS STATION/POSITION TIME TEMP WIND PRES WAVE AIR SEA DIR/SP/G HT/PER (UTC) (F) (DEG/KT/KT) (MB) (FT/S) MATINICUS ROCK 2000 59 240/ 14/ 15 1012.8F ISLE OF SHOALS 2000 71 240/ 14/ 15 1013.2F JEFFREYS LEDGE 2006 59 N/A 1/ 8 CASHES LEDGE BUO 1950 66 61 1013.9 2/ 8 GEORGES BANK BUO 1950 58 57 1015.8 3/ 7 $$ .............KEY.............. WCI - WIND CHILL TC - TEMPERATURE IN CELSIUS VSB - VISIBILITY IN MILES HX - HEAT INDEX FAIR- INDICATES FEW OR NO CLOUDS BELOW 12,000 FT, WITH NO SIGNIFICANT WEATHER AND/OR OBSTRUCTIONS TO VISIBILITY.

USA.gov is the U.S. government's official web portal to all federal, state and local government web resources and services.